Oklahoma City, OK

6:03 PM CST on February 23, 2017 (GMT -0600)
Tinker Air Force Base

Weather History for KTIK - September, 2013

Change the Weather History Date:

Wednesday, September 4, 2013

  Actual Average Record
Temperature  
Mean Temperature 80 °F -  
Max Temperature 92 °F 86 °F 105 °F (1998)
Min Temperature 68 °F 66 °F 57 °F (2008)
Cooling Degree Days 15    
Growing Degree Days 30 (Base 50)    
Moisture  
Dew Point 64 °F    
Average Humidity 61    
Maximum Humidity 76    
Minimum Humidity 39    
Precipitation  
Precipitation 0.00 in - - ()
Sea Level Pressure  
Sea Level Pressure 30.07 in    
Wind  
Wind Speed 7 mph (East)    
Max Wind Speed 8 mph    
Max Gust Speed -    
Visibility 10 miles    
Events      
Averages and records for this station are not official NWS values.
T = Trace of Precipitation, MM = Missing Value Source: NWS Daily Summary

Daily Weather History Graph

Daily Weather History Graph

Search for Another Location

Airport or City:

Trip Planner

Search our weather history database for the weather conditions in past years. The results will help you decide how hot, cold, wet, or windy it might be!

Date:

Astronomy

Sep. 04, 2013 Rise Set
Actual Time 7:04 AM CDT 7:51 PM CDT
Civil Twilight 6:38 AM CDT 8:17 PM CDT
Nautical Twilight 6:07 AM CDT 8:48 PM CDT
Astronomical Twilight 5:36 AM CDT 9:19 PM CDT
Moon 6:17 AM CDT (9/4) 7:13 PM CDT (9/4)
Length of Visible Light 13h 39m
Length of Day
12h 47m
Waning Crescent, 1% of the Moon is Illuminated
Sep 4
Waning Crescent
Sep 5
New
Sep 12
First Quarter
Sep 19
Full
Sep 26
Last Quarter

Hourly Weather History & Observations

Time (CDT) Temp. Heat Index Dew Point Humidity Pressure Visibility Wind Dir Wind Speed Gust Speed Precip Events Conditions
12:58 AM 69.4 °F - 58.6 °F 68% 30.04 in 10.0 mi ENE 8.1 mph - N/A   Clear
1:58 AM 68.5 °F - 58.6 °F 71% 30.05 in 10.0 mi East 8.1 mph - N/A   Clear
2:58 AM 68.5 °F - 57.9 °F 69% 30.04 in 10.0 mi ENE 6.9 mph - N/A   Clear
3:58 AM 69.4 °F - 58.1 °F 67% 30.03 in 10.0 mi East 6.9 mph - N/A   Clear
4:58 AM 69.4 °F - 58.6 °F 68% 30.04 in 10.0 mi East 8.1 mph - N/A   Clear
5:58 AM 68.9 °F - 59.0 °F 71% 30.05 in 10.0 mi East 8.1 mph - N/A   Clear
6:58 AM 68.0 °F - 59.2 °F 73% 30.08 in 10.0 mi East 8.1 mph - N/A   Clear
7:58 AM 68.7 °F - 61.0 °F 76% 30.10 in 10.0 mi East 5.8 mph - N/A   Clear
8:58 AM 75.2 °F - 63.5 °F 67% 30.11 in 10.0 mi Variable 3.5 mph - N/A   Clear
9:58 AM 78.6 °F - 66.0 °F 65% 30.12 in 10.0 mi Variable 6.9 mph - N/A   Clear
10:58 AM 82.0 °F 85.1 °F 68.2 °F 63% 30.13 in 10.0 mi ESE 5.8 mph - N/A   Clear
11:58 AM 84.7 °F 88.8 °F 69.4 °F 60% 30.12 in 10.0 mi Variable 4.6 mph - N/A   Clear
12:58 PM 88.3 °F 92.0 °F 68.2 °F 51% 30.10 in 10.0 mi Variable 3.5 mph - N/A   Clear
1:58 PM 90.0 °F 92.4 °F 66.0 °F 45% 30.09 in 10.0 mi Variable 2.3 mph - N/A   Clear
2:58 PM 91.4 °F 93.6 °F 65.5 °F 42% 30.08 in 10.0 mi Variable 6.9 mph - N/A   Clear
3:58 PM 91.6 °F 93.5 °F 64.9 °F 41% 30.06 in 10.0 mi East 8.1 mph - N/A   Clear
4:58 PM 92.5 °F 94.1 °F 64.2 °F 39% 30.05 in 10.0 mi ESE 6.9 mph - N/A   Clear
5:58 PM 91.0 °F 92.2 °F 63.5 °F 40% 30.03 in 10.0 mi East 6.9 mph - N/A   Clear
6:58 PM 88.3 °F 90.5 °F 65.8 °F 47% 30.03 in 10.0 mi ESE 6.9 mph - N/A   Clear
7:58 PM 82.4 °F 84.2 °F 65.5 °F 56% 30.05 in 10.0 mi East 4.6 mph - N/A   Clear
8:58 PM 78.6 °F - 65.8 °F 65% 30.06 in 10.0 mi East 5.8 mph - N/A   Clear
9:58 PM 77.7 °F - 66.2 °F 68% 30.07 in 10.0 mi East 4.6 mph - N/A   Clear
10:58 PM 75.9 °F - 65.7 °F 70% 30.08 in 10.0 mi ESE 5.8 mph - N/A   Clear
11:58 PM 73.9 °F - 64.9 °F 73% 30.09 in 10.0 mi East 3.5 mph - N/A   Clear